TimeEST,TemperatureF,Dew PointF,Humidity,Sea Level PressureIn,VisibilityMPH,Wind Direction,Wind SpeedMPH,Gust SpeedMPH,PrecipitationIn,Events,Conditions,WindDirDegrees,DateUTC
12:15 AM,39.2,30.2,70,30.20,10.0,Calm,Calm,-,N/A,,Mostly Cloudy,0,2012-11-10 05:15:00
12:35 AM,37.4,30.2,75,30.20,10.0,SSE,4.6,-,N/A,,Overcast,160,2012-11-10 05:35:00
12:55 AM,41.0,32.0,70,30.18,10.0,SE,4.6,-,N/A,,Overcast,140,2012-11-10 05:55:00
1:15 AM,42.8,30.2,61,30.21,10.0,Calm,Calm,-,N/A,,Overcast,0,2012-11-10 06:15:00
1:35 AM,37.4,30.2,75,30.21,8.0,NE,3.5,-,N/A,,Mostly Cloudy,40,2012-11-10 06:35:00
1:55 AM,37.4,32.0,81,30.22,7.0,Calm,Calm,-,N/A,,Overcast,0,2012-11-10 06:55:00
2:15 AM,37.4,33.8,87,30.22,10.0,NNE,5.8,-,N/A,,Overcast,30,2012-11-10 07:15:00
2:35 AM,39.2,33.8,81,30.25,10.0,North,3.5,-,N/A,,Overcast,360,2012-11-10 07:35:00
2:55 AM,39.2,33.8,81,30.26,10.0,WSW,3.5,-,N/A,,Overcast,240,2012-11-10 07:55:00
3:15 AM,39.2,35.6,87,30.25,7.0,Calm,Calm,-,N/A,,Overcast,0,2012-11-10 08:15:00
3:35 AM,39.2,35.6,87,30.25,5.0,Calm,Calm,-,0.01,,Overcast,0,2012-11-10 08:35:00
3:55 AM,39.2,35.6,87,30.25,4.0,Calm,Calm,-,0.03,,Overcast,0,2012-11-10 08:55:00
4:15 AM,39.2,35.6,87,30.25,5.0,East,3.5,-,N/A,,Overcast,80,2012-11-10 09:15:00
4:35 AM,39.2,37.4,93,30.25,3.0,SSE,5.8,-,N/A,,Overcast,160,2012-11-10 09:35:00
4:55 AM,39.2,37.4,93,30.25,5.0,South,5.8,-,0.01,,Overcast,170,2012-11-10 09:55:00
5:15 AM,39.2,37.4,93,30.25,5.0,South,3.5,-,0.01,,Overcast,190,2012-11-10 10:15:00
5:35 AM,41.0,37.4,87,30.26,5.0,SSW,4.6,-,0.01,,Overcast,200,2012-11-10 10:35:00
5:55 AM,41.0,37.4,87,30.25,6.0,SSE,4.6,-,0.01,,Overcast,160,2012-11-10 10:55:00
6:15 AM,41.0,37.4,87,30.25,4.0,SE,4.6,-,N/A,,Overcast,140,2012-11-10 11:15:00
6:35 AM,41.0,39.2,93,30.25,6.0,SSE,3.5,-,N/A,,Overcast,160,2012-11-10 11:35:00
6:55 AM,41.0,39.2,93,30.25,5.0,SE,4.6,-,N/A,,Overcast,130,2012-11-10 11:55:00
7:35 AM,42.8,37.4,81,30.27,10.0,ESE,4.6,-,N/A,,Overcast,120,2012-11-10 12:35:00
7:55 AM,42.8,37.4,81,30.28,10.0,SE,4.6,-,N/A,,Overcast,130,2012-11-10 12:55:00
8:15 AM,42.8,37.4,81,30.29,10.0,SE,4.6,-,N/A,,Overcast,140,2012-11-10 13:15:00
8:35 AM,42.8,37.4,81,30.28,10.0,SE,5.8,-,N/A,,Overcast,140,2012-11-10 13:35:00
8:55 AM,42.8,35.6,76,30.27,10.0,SE,6.9,-,N/A,,Overcast,140,2012-11-10 13:55:00
9:15 AM,44.6,35.6,71,30.27,10.0,SE,4.6,-,N/A,,Overcast,130,2012-11-10 14:15:00
9:35 AM,44.6,37.4,76,30.27,10.0,SE,5.8,-,N/A,,Overcast,140,2012-11-10 14:35:00
9:55 AM,44.6,37.4,76,30.27,10.0,SE,5.8,-,N/A,,Overcast,140,2012-11-10 14:55:00
10:15 AM,46.4,37.4,71,30.27,10.0,SSE,5.8,-,N/A,,Overcast,160,2012-11-10 15:15:00
10:35 AM,46.4,37.4,71,30.27,10.0,SSE,6.9,-,N/A,,Overcast,160,2012-11-10 15:35:00
10:55 AM,48.2,37.4,66,30.27,10.0,SSE,5.8,-,N/A,,Overcast,160,2012-11-10 15:55:00
11:15 AM,50.0,39.2,66,30.26,10.0,South,8.1,-,N/A,,Partly Cloudy,170,2012-11-10 16:15:00
11:35 AM,51.8,39.2,62,30.24,10.0,South,9.2,-,N/A,,Clear,180,2012-11-10 16:35:00
11:55 AM,53.6,39.2,58,30.23,10.0,South,5.8,-,N/A,,Clear,180,2012-11-10 16:55:00
12:15 PM,57.2,39.2,51,30.22,10.0,SSW,8.1,-,N/A,,Clear,210,2012-11-10 17:15:00
12:35 PM,57.2,39.2,51,30.22,10.0,South,9.2,-,N/A,,Clear,190,2012-11-10 17:35:00
12:55 PM,59.0,39.2,48,30.21,10.0,South,8.1,-,N/A,,Clear,180,2012-11-10 17:55:00
1:15 PM,59.0,39.2,48,30.20,10.0,South,8.1,-,N/A,,Clear,180,2012-11-10 18:15:00
1:35 PM,62.6,39.2,42,30.20,10.0,South,8.1,-,N/A,,Clear,180,2012-11-10 18:35:00
1:55 PM,62.6,39.2,42,30.20,10.0,SSW,11.5,-,N/A,,Clear,210,2012-11-10 18:55:00
2:15 PM,62.6,37.4,39,30.19,10.0,SSW,12.7,17.3,N/A,,Clear,200,2012-11-10 19:15:00
2:35 PM,64.4,37.4,37,30.19,10.0,SSW,8.1,-,N/A,,Clear,200,2012-11-10 19:35:00
2:55 PM,64.4,37.4,37,30.18,10.0,SSW,9.2,-,N/A,,Clear,200,2012-11-10 19:55:00
3:15 PM,64.4,37.4,37,30.18,10.0,South,11.5,-,N/A,,Clear,180,2012-11-10 20:15:00
3:35 PM,64.4,37.4,37,30.19,10.0,South,8.1,-,N/A,,Clear,180,2012-11-10 20:35:00
3:55 PM,62.6,37.4,39,30.20,10.0,South,6.9,-,N/A,,Clear,190,2012-11-10 20:55:00
4:15 PM,62.6,35.6,37,30.20,10.0,South,6.9,-,N/A,,Clear,190,2012-11-10 21:15:00
4:35 PM,60.8,35.6,39,30.20,10.0,South,3.5,-,N/A,,Clear,170,2012-11-10 21:35:00
4:55 PM,60.8,35.6,39,30.21,10.0,South,3.5,-,N/A,,Clear,170,2012-11-10 21:55:00
5:15 PM,59.0,35.6,42,30.21,10.0,Calm,Calm,-,N/A,,Clear,0,2012-11-10 22:15:00
5:35 PM,59.0,33.8,39,30.21,10.0,SE,3.5,-,N/A,,Clear,140,2012-11-10 22:35:00
5:55 PM,57.2,33.8,41,30.22,9.0,SE,3.5,-,N/A,,Clear,130,2012-11-10 22:55:00
6:15 PM,57.2,33.8,41,30.23,10.0,SE,3.5,-,N/A,,Partly Cloudy,140,2012-11-10 23:15:00
6:35 PM,51.8,37.4,58,30.24,10.0,SE,3.5,-,N/A,,Mostly Cloudy,130,2012-11-10 23:35:00
6:55 PM,57.2,33.8,41,30.24,10.0,SE,4.6,-,N/A,,Mostly Cloudy,130,2012-11-10 23:55:00
7:15 PM,57.2,33.8,41,30.25,10.0,SE,3.5,-,N/A,,Partly Cloudy,140,2012-11-11 00:15:00
7:35 PM,55.4,33.8,44,30.24,10.0,SE,4.6,-,N/A,,Clear,140,2012-11-11 00:35:00
7:55 PM,57.2,33.8,41,30.25,10.0,SE,5.8,-,N/A,,Clear,140,2012-11-11 00:55:00
8:15 PM,57.2,33.8,41,30.25,10.0,SE,4.6,-,N/A,,Clear,140,2012-11-11 01:15:00
8:35 PM,55.4,33.8,44,30.24,10.0,SE,6.9,-,N/A,,Clear,140,2012-11-11 01:35:00
8:55 PM,55.4,33.8,44,30.25,10.0,SE,5.8,-,N/A,,Clear,140,2012-11-11 01:55:00
9:15 PM,55.4,33.8,44,30.26,10.0,SE,6.9,-,N/A,,Clear,140,2012-11-11 02:15:00
9:35 PM,55.4,33.8,44,30.26,10.0,SE,6.9,-,N/A,,Clear,140,2012-11-11 02:35:00
9:55 PM,55.4,33.8,44,30.25,10.0,SE,6.9,-,N/A,,Clear,140,2012-11-11 02:55:00
10:15 PM,55.4,33.8,44,30.25,10.0,SSE,5.8,-,N/A,,Clear,150,2012-11-11 03:15:00
10:35 PM,55.4,33.8,44,30.25,10.0,SSE,5.8,-,N/A,,Clear,150,2012-11-11 03:35:00
11:15 PM,51.8,33.8,50,30.25,10.0,SSE,5.8,-,N/A,,Clear,160,2012-11-11 04:15:00
11:35 PM,53.6,33.8,47,30.25,10.0,South,4.6,-,N/A,,Clear,170,2012-11-11 04:35:00
11:55 PM,53.6,33.8,47,30.26,10.0,SSE,4.6,-,N/A,,Clear,160,2012-11-11 04:55:00